Time,TemperatureF,DewpointF,PressureIn,WindDirection,WindDirectionDegrees,WindSpeedMPH,WindSpeedGustMPH,Humidity,HourlyPrecipIn,Conditions,Clouds,dailyrainin,SoftwareType,DateUTC
2013-07-13 00:02:00,59.2,33.0,29.88,WSW,237,0.0,3.6,37,0.00,,---,0.00,VWS V14.01,2013-07-13 06:02:00,
2013-07-13 00:07:00,58.8,32.6,29.88,WSW,257,0.0,3.6,37,0.00,,---,0.00,VWS V14.01,2013-07-13 06:07:00,
2013-07-13 00:12:00,58.8,32.6,29.88,WSW,258,0.0,3.6,37,0.00,,---,0.00,VWS V14.01,2013-07-13 06:12:00,
2013-07-13 00:17:00,58.6,32.5,29.88,WSW,258,0.0,0.0,37,0.00,,---,0.00,VWS V14.01,2013-07-13 06:17:00,
2013-07-13 00:22:00,58.5,31.6,29.91,WSW,258,0.0,0.0,36,0.00,,---,0.00,VWS V14.01,2013-07-13 06:22:00,
2013-07-13 00:27:00,59.7,32.0,29.91,West,261,0.0,0.0,35,0.00,,---,0.00,VWS V14.01,2013-07-13 06:27:00,
2013-07-13 00:32:00,61.3,31.2,29.91,West,272,0.0,0.0,32,0.00,,---,0.00,VWS V14.01,2013-07-13 06:32:00,
2013-07-13 00:37:00,63.0,30.2,29.91,West,272,0.0,0.0,29,0.00,,---,0.00,VWS V14.01,2013-07-13 06:37:00,
2013-07-13 00:42:00,63.3,29.7,29.91,West,272,0.0,0.0,28,0.00,,---,0.00,VWS V14.01,2013-07-13 06:42:00,
2013-07-13 00:47:00,63.3,29.7,29.91,NE,35,0.0,0.0,28,0.00,,---,0.00,VWS V14.01,2013-07-13 06:47:00,
2013-07-13 00:52:00,61.7,29.1,29.91,NE,35,0.0,0.0,29,0.00,,---,0.00,VWS V14.01,2013-07-13 06:52:00,
2013-07-13 00:57:00,60.3,29.5,29.91,NE,35,0.0,0.0,31,0.00,,---,0.00,VWS V14.01,2013-07-13 06:57:00,
2013-07-13 01:02:00,60.1,30.1,29.91,NE,35,0.0,0.0,32,0.00,,---,0.00,VWS V14.01,2013-07-13 07:02:00,
2013-07-13 01:07:00,59.2,30.9,29.91,NE,54,0.0,0.0,34,0.00,,---,0.00,VWS V14.01,2013-07-13 07:07:00,
2013-07-13 01:12:00,57.9,30.5,29.91,NE,54,0.0,0.0,35,0.00,,---,0.00,VWS V14.01,2013-07-13 07:12:00,
2013-07-13 01:17:00,57.2,29.8,29.91,NE,54,0.0,0.0,35,0.00,,---,0.00,VWS V14.01,2013-07-13 07:17:00,
2013-07-13 01:22:00,57.0,30.4,29.91,NE,54,0.0,0.0,36,0.00,,---,0.00,VWS V14.01,2013-07-13 07:22:00,
2013-07-13 01:27:00,58.3,30.8,29.91,NE,54,0.0,0.0,35,0.00,,---,0.00,VWS V14.01,2013-07-13 07:27:00,
2013-07-13 01:32:00,59.2,31.6,29.91,NE,37,0.0,0.0,35,0.00,,---,0.00,VWS V14.01,2013-07-13 07:32:00,
2013-07-13 01:37:00,57.7,30.3,29.91,SSE,166,0.0,0.0,35,0.00,,---,0.00,VWS V14.01,2013-07-13 07:37:00,
2013-07-13 01:42:00,56.3,29.7,29.91,SE,128,0.0,0.0,36,0.00,,---,0.00,VWS V14.01,2013-07-13 07:42:00,
2013-07-13 01:47:00,55.6,30.4,29.91,SW,232,0.0,0.0,38,0.00,,---,0.00,VWS V14.01,2013-07-13 07:47:00,
2013-07-13 01:52:00,55.0,31.2,29.91,NNE,24,0.0,3.6,40,0.00,,---,0.00,VWS V14.01,2013-07-13 07:52:00,
2013-07-13 01:57:00,54.5,31.3,29.91,West,281,0.0,3.6,41,0.00,,---,0.00,VWS V14.01,2013-07-13 07:57:00,
2013-07-13 02:02:00,57.2,30.5,29.91,West,277,0.0,3.1,36,0.00,,---,0.00,VWS V14.01,2013-07-13 08:02:00,
2013-07-13 02:07:00,59.4,31.0,29.93,East,95,0.0,3.1,34,0.00,,---,0.00,VWS V14.01,2013-07-13 08:07:00,
2013-07-13 02:12:00,58.8,30.5,29.93,WSW,258,0.0,3.1,34,0.00,,---,0.00,VWS V14.01,2013-07-13 08:12:00,
2013-07-13 02:17:00,60.1,29.4,29.93,West,261,0.0,0.0,31,0.00,,---,0.00,VWS V14.01,2013-07-13 08:17:00,
2013-07-13 02:22:00,61.3,28.8,29.93,West,272,0.0,3.1,29,0.00,,---,0.00,VWS V14.01,2013-07-13 08:22:00,
2013-07-13 02:27:00,61.7,28.3,29.93,WNW,299,0.0,3.6,28,0.00,,---,0.00,VWS V14.01,2013-07-13 08:27:00,
2013-07-13 02:32:00,61.9,27.6,29.93,West,267,0.0,0.0,27,0.00,,---,0.00,VWS V14.01,2013-07-13 08:32:00,
2013-07-13 02:37:00,61.7,27.4,29.93,West,268,0.0,0.0,27,0.00,,---,0.00,VWS V14.01,2013-07-13 08:37:00,
2013-07-13 02:42:00,60.4,27.2,29.93,SE,130,0.0,0.0,28,0.00,,---,0.00,VWS V14.01,2013-07-13 08:42:00,
2013-07-13 02:47:00,57.7,26.5,29.93,SE,130,0.0,0.0,30,0.00,,---,0.00,VWS V14.01,2013-07-13 08:47:00,
2013-07-13 02:52:00,56.1,28.1,29.93,SE,130,0.0,0.0,34,0.00,,---,0.00,VWS V14.01,2013-07-13 08:52:00,
2013-07-13 02:57:00,54.9,28.4,29.93,SE,130,0.0,0.0,36,0.00,,---,0.00,VWS V14.01,2013-07-13 08:57:00,
2013-07-13 03:02:00,53.8,28.1,29.93,SE,130,0.0,0.0,37,0.00,,---,0.00,VWS V14.01,2013-07-13 09:02:00,
2013-07-13 03:07:00,53.2,28.9,29.93,SE,130,0.0,0.0,39,0.00,,---,0.00,VWS V14.01,2013-07-13 09:07:00,
2013-07-13 03:12:00,52.7,28.5,29.93,SE,130,0.0,0.0,39,0.00,,---,0.00,VWS V14.01,2013-07-13 09:12:00,
2013-07-13 03:17:00,52.3,28.8,29.93,SE,130,0.0,0.0,40,0.00,,---,0.00,VWS V14.01,2013-07-13 09:17:00,
2013-07-13 03:22:00,52.2,29.8,29.93,SE,130,0.0,0.0,42,0.00,,---,0.00,VWS V14.01,2013-07-13 09:22:00,
2013-07-13 03:27:00,52.0,29.6,29.93,SE,130,0.0,0.0,42,0.00,,---,0.00,VWS V14.01,2013-07-13 09:27:00,
2013-07-13 03:32:00,51.6,31.0,29.93,South,171,0.0,0.0,45,0.00,,---,0.00,VWS V14.01,2013-07-13 09:32:00,
2013-07-13 03:37:00,51.8,31.7,29.93,South,171,0.0,0.0,46,0.00,,---,0.00,VWS V14.01,2013-07-13 09:37:00,
2013-07-13 03:42:00,51.6,32.1,29.93,South,171,0.0,0.0,47,0.00,,---,0.00,VWS V14.01,2013-07-13 09:42:00,
2013-07-13 03:47:00,51.3,31.7,29.93,South,171,0.0,0.0,47,0.00,,---,0.00,VWS V14.01,2013-07-13 09:47:00,
2013-07-13 03:52:00,51.1,31.6,29.96,South,171,0.0,0.0,47,0.00,,---,0.00,VWS V14.01,2013-07-13 09:52:00,
2013-07-13 03:57:00,50.9,31.4,29.96,South,171,0.0,0.0,47,0.00,,---,0.00,VWS V14.01,2013-07-13 09:57:00,
2013-07-13 04:02:00,50.9,31.4,29.96,South,171,0.0,0.0,47,0.00,,---,0.00,VWS V14.01,2013-07-13 10:02:00,
2013-07-13 04:07:00,50.5,31.1,29.96,South,171,0.0,0.0,47,0.00,,---,0.00,VWS V14.01,2013-07-13 10:07:00,
2013-07-13 04:12:00,50.4,30.9,29.96,South,171,0.0,0.0,47,0.00,,---,0.00,VWS V14.01,2013-07-13 10:12:00,
2013-07-13 04:17:00,50.2,30.8,29.96,South,171,0.0,0.0,47,0.00,,---,0.00,VWS V14.01,2013-07-13 10:17:00,
2013-07-13 04:22:00,50.2,30.8,29.96,South,171,0.0,0.0,47,0.00,,---,0.00,VWS V14.01,2013-07-13 10:22:00,
2013-07-13 04:27:00,50.0,30.6,29.96,South,171,0.0,0.0,47,0.00,,---,0.00,VWS V14.01,2013-07-13 10:27:00,
2013-07-13 04:32:00,49.8,30.4,29.96,South,171,0.0,0.0,47,0.00,,---,0.00,VWS V14.01,2013-07-13 10:32:00,
2013-07-13 04:37:00,49.6,30.2,29.96,South,175,0.0,0.0,47,0.00,,---,0.00,VWS V14.01,2013-07-13 10:37:00,
2013-07-13 04:42:00,49.5,30.1,29.96,South,177,0.0,0.0,47,0.00,,---,0.00,VWS V14.01,2013-07-13 10:42:00,
2013-07-13 04:47:00,49.3,29.9,29.96,South,177,0.0,0.0,47,0.00,,---,0.00,VWS V14.01,2013-07-13 10:47:00,
2013-07-13 04:52:00,49.5,30.6,29.96,South,177,0.0,0.0,48,0.00,,---,0.00,VWS V14.01,2013-07-13 10:52:00,
2013-07-13 04:57:00,49.3,30.4,29.96,South,177,0.0,0.0,48,0.00,,---,0.00,VWS V14.01,2013-07-13 10:57:00,
2013-07-13 05:02:00,49.1,30.3,29.96,South,177,0.0,0.0,48,0.00,,---,0.00,VWS V14.01,2013-07-13 11:02:00,
2013-07-13 05:07:00,48.7,29.4,29.96,South,177,0.0,0.0,47,0.00,,---,0.00,VWS V14.01,2013-07-13 11:07:00,
2013-07-13 05:12:00,48.7,29.9,29.96,SSW,206,0.0,0.0,48,0.00,,---,0.00,VWS V14.01,2013-07-13 11:12:00,
2013-07-13 05:17:00,48.7,30.5,29.96,SSW,206,0.0,0.0,49,0.00,,---,0.00,VWS V14.01,2013-07-13 11:17:00,
2013-07-13 05:22:00,48.6,30.3,29.96,SSW,206,0.0,0.0,49,0.00,,---,0.00,VWS V14.01,2013-07-13 11:22:00,
2013-07-13 05:27:00,48.6,30.3,29.96,SSW,206,0.0,0.0,49,0.00,,---,0.00,VWS V14.01,2013-07-13 11:27:00,
2013-07-13 05:32:00,48.6,30.3,29.96,SSW,206,0.0,0.0,49,0.00,,---,0.00,VWS V14.01,2013-07-13 11:32:00,
2013-07-13 05:37:00,48.4,30.1,29.96,SSW,213,0.0,0.0,49,0.00,,---,0.00,VWS V14.01,2013-07-13 11:37:00,
2013-07-13 05:42:00,48.0,29.8,29.96,SSW,213,0.0,0.0,49,0.00,,---,0.00,VWS V14.01,2013-07-13 11:42:00,
2013-07-13 05:47:00,47.8,29.6,29.96,SSW,213,0.0,0.0,49,0.00,,---,0.00,VWS V14.01,2013-07-13 11:47:00,
2013-07-13 05:52:00,47.8,29.6,29.99,SSW,213,0.0,0.0,49,0.00,,---,0.00,VWS V14.01,2013-07-13 11:52:00,
2013-07-13 05:57:00,47.8,29.6,29.99,SSW,213,0.0,0.0,49,0.00,,---,0.00,VWS V14.01,2013-07-13 11:57:00,
2013-07-13 06:02:00,48.2,30.0,29.99,SSW,213,0.0,0.0,49,0.00,,---,0.00,VWS V14.01,2013-07-13 12:02:00,
2013-07-13 06:07:00,48.0,29.8,29.99,SSW,213,0.0,0.0,49,0.00,,---,0.00,VWS V14.01,2013-07-13 12:07:00,
2013-07-13 06:12:00,48.0,29.8,29.99,SSW,213,0.0,0.0,49,0.00,,---,0.00,VWS V14.01,2013-07-13 12:12:00,
2013-07-13 06:17:00,48.0,29.8,29.99,SSW,213,0.0,0.0,49,0.00,,---,0.00,VWS V14.01,2013-07-13 12:17:00,
2013-07-13 06:22:00,47.8,29.6,29.99,SSW,213,0.0,0.0,49,0.00,,---,0.00,VWS V14.01,2013-07-13 12:22:00,
2013-07-13 06:27:00,47.8,29.6,29.99,SSW,213,0.0,0.0,49,0.00,,---,0.00,VWS V14.01,2013-07-13 12:27:00,
2013-07-13 06:32:00,48.2,30.0,29.99,SSW,213,0.0,0.0,49,0.00,,---,0.00,VWS V14.01,2013-07-13 12:32:00,
2013-07-13 06:37:00,48.7,30.5,29.99,SSW,213,0.0,0.0,49,0.00,,---,0.00,VWS V14.01,2013-07-13 12:37:00,
2013-07-13 06:42:00,48.9,30.6,29.99,SSW,213,0.0,0.0,49,0.00,,---,0.00,VWS V14.01,2013-07-13 12:42:00,
2013-07-13 06:47:00,49.3,30.4,29.99,SSW,213,0.0,0.0,48,0.00,,---,0.00,VWS V14.01,2013-07-13 12:47:00,
2013-07-13 06:52:00,49.8,31.4,29.99,SSW,213,0.0,0.0,49,0.00,,---,0.00,VWS V14.01,2013-07-13 12:52:00,
2013-07-13 06:57:00,50.4,31.4,29.99,South,179,0.0,0.0,48,0.00,,---,0.00,VWS V14.01,2013-07-13 12:57:00,
2013-07-13 07:02:00,51.1,32.1,29.99,South,179,0.0,0.0,48,0.00,,---,0.00,VWS V14.01,2013-07-13 13:02:00,
2013-07-13 07:07:00,51.6,32.6,29.99,South,179,0.0,0.0,48,0.00,,---,0.00,VWS V14.01,2013-07-13 13:07:00,
2013-07-13 07:12:00,52.2,32.6,29.99,South,179,0.0,0.0,47,0.00,,---,0.00,VWS V14.01,2013-07-13 13:12:00,
2013-07-13 07:17:00,52.5,32.9,29.99,South,172,0.0,0.0,47,0.00,,---,0.00,VWS V14.01,2013-07-13 13:17:00,
2013-07-13 07:22:00,52.9,33.2,29.99,South,172,0.0,0.0,47,0.00,,---,0.00,VWS V14.01,2013-07-13 13:22:00,
2013-07-13 07:27:00,53.2,33.0,29.99,South,172,0.0,0.0,46,0.00,,---,0.00,VWS V14.01,2013-07-13 13:27:00,
2013-07-13 07:32:00,53.4,33.2,29.99,South,172,0.0,0.0,46,0.00,,---,0.00,VWS V14.01,2013-07-13 13:32:00,
2013-07-13 07:37:00,54.0,33.7,29.99,South,172,0.0,0.0,46,0.00,,---,0.00,VWS V14.01,2013-07-13 13:37:00,
2013-07-13 07:42:00,55.4,34.4,29.99,South,172,0.0,0.0,45,0.00,,---,0.00,VWS V14.01,2013-07-13 13:42:00,
2013-07-13 07:47:00,57.4,35.7,29.99,South,172,0.0,0.0,44,0.00,,---,0.00,VWS V14.01,2013-07-13 13:47:00,
2013-07-13 07:52:00,58.1,34.5,30.02,SSE,158,3.1,3.6,41,0.00,,---,0.00,VWS V14.01,2013-07-13 13:52:00,
2013-07-13 07:57:00,57.9,33.1,30.02,SSE,150,3.1,4.0,39,0.00,,---,0.00,VWS V14.01,2013-07-13 13:57:00,
2013-07-13 08:02:00,58.1,33.3,30.02,SE,128,3.1,4.0,39,0.00,,---,0.00,VWS V14.01,2013-07-13 14:02:00,
2013-07-13 08:07:00,58.3,32.8,30.02,SE,137,3.6,4.5,38,0.00,,---,0.00,VWS V14.01,2013-07-13 14:07:00,
2013-07-13 08:12:00,58.3,32.8,30.02,SE,144,2.7,4.5,38,0.00,,---,0.00,VWS V14.01,2013-07-13 14:12:00,
2013-07-13 08:17:00,59.0,33.5,30.02,SE,137,3.1,4.0,38,0.00,,---,0.00,VWS V14.01,2013-07-13 14:17:00,
2013-07-13 08:22:00,60.4,34.1,29.99,South,173,0.0,4.0,37,0.00,,---,0.00,VWS V14.01,2013-07-13 14:22:00,
2013-07-13 08:27:00,62.1,34.8,29.99,SE,129,2.7,4.9,36,0.00,,---,0.00,VWS V14.01,2013-07-13 14:27:00,
2013-07-13 08:32:00,62.6,33.9,29.99,SE,144,4.9,4.9,34,0.00,,---,0.00,VWS V14.01,2013-07-13 14:32:00,
2013-07-13 08:37:00,62.2,33.5,29.99,SSE,154,2.2,5.4,34,0.00,,---,0.00,VWS V14.01,2013-07-13 14:37:00,
2013-07-13 08:42:00,61.9,33.2,29.99,SE,138,3.1,5.4,34,0.00,,---,0.00,VWS V14.01,2013-07-13 14:42:00,
2013-07-13 08:47:00,62.2,33.5,29.99,SE,145,0.0,3.1,34,0.00,,---,0.00,VWS V14.01,2013-07-13 14:47:00,
2013-07-13 08:52:00,63.5,34.7,30.02,SE,141,3.1,4.0,34,0.00,,---,0.00,VWS V14.01,2013-07-13 14:52:00,
2013-07-13 08:57:00,64.8,35.0,30.02,SSE,148,2.2,4.0,33,0.00,,---,0.00,VWS V14.01,2013-07-13 14:57:00,
2013-07-13 09:02:00,65.8,33.6,30.02,SSE,150,5.4,5.8,30,0.00,,---,0.00,VWS V14.01,2013-07-13 15:02:00,
2013-07-13 09:07:00,66.4,33.2,30.02,SE,138,3.6,5.8,29,0.00,,---,0.00,VWS V14.01,2013-07-13 15:07:00,
2013-07-13 09:12:00,67.1,33.8,30.02,East,91,2.7,5.8,29,0.00,,---,0.00,VWS V14.01,2013-07-13 15:12:00,
2013-07-13 09:17:00,68.4,34.0,30.02,SE,142,3.6,3.6,28,0.00,,---,0.00,VWS V14.01,2013-07-13 15:17:00,
2013-07-13 09:22:00,69.3,32.9,30.02,East,88,4.0,4.9,26,0.00,,---,0.00,VWS V14.01,2013-07-13 15:22:00,
2013-07-13 09:27:00,70.0,32.6,30.02,East,90,4.0,4.9,25,0.00,,---,0.00,VWS V14.01,2013-07-13 15:27:00,
2013-07-13 09:32:00,71.1,32.5,30.02,ESE,118,3.6,4.0,24,0.00,,---,0.00,VWS V14.01,2013-07-13 15:32:00,
2013-07-13 09:37:00,71.6,31.9,30.02,East,96,3.6,4.0,23,0.00,,---,0.00,VWS V14.01,2013-07-13 15:37:00,
2013-07-13 09:42:00,72.5,32.6,30.02,East,83,2.7,4.0,23,0.00,,---,0.00,VWS V14.01,2013-07-13 15:42:00,
2013-07-13 09:47:00,73.4,31.1,30.02,East,91,0.0,2.7,21,0.00,,---,0.00,VWS V14.01,2013-07-13 15:47:00,
2013-07-13 09:52:00,74.3,31.9,30.02,SE,132,0.0,2.7,21,0.00,,---,0.00,VWS V14.01,2013-07-13 15:52:00,
2013-07-13 09:57:00,74.7,32.2,30.02,ENE,73,4.9,4.9,21,0.00,,---,0.00,VWS V14.01,2013-07-13 15:57:00,
2013-07-13 10:02:00,73.9,27.8,30.02,ENE,69,0.0,0.0,18,0.00,,---,0.00,VWS V14.01,2013-07-13 16:02:00,
2013-07-13 10:07:00,73.9,27.8,30.02,ENE,68,0.0,4.9,18,0.00,,---,0.00,VWS V14.01,2013-07-13 16:07:00,
2013-07-13 10:12:00,74.7,28.4,30.02,East,96,0.0,4.9,18,0.00,,---,0.00,VWS V14.01,2013-07-13 16:12:00,
2013-07-13 10:17:00,74.7,28.4,30.02,ENE,60,0.0,3.1,18,0.00,,---,0.00,VWS V14.01,2013-07-13 16:17:00,
2013-07-13 10:22:00,73.9,27.8,30.02,North,357,0.0,3.1,18,0.00,,---,0.00,VWS V14.01,2013-07-13 16:22:00,
2013-07-13 10:27:00,74.5,28.2,30.02,ENE,61,3.6,4.0,18,0.00,,---,0.00,VWS V14.01,2013-07-13 16:27:00,
2013-07-13 10:32:00,74.7,28.4,30.02,NNW,343,0.0,2.7,18,0.00,,---,0.00,VWS V14.01,2013-07-13 16:32:00,
2013-07-13 10:37:00,74.5,25.4,30.02,NNE,30,0.0,2.7,16,0.00,,---,0.00,VWS V14.01,2013-07-13 16:37:00,
2013-07-13 10:42:00,74.3,25.2,30.02,North,8,0.0,2.7,16,0.00,,---,0.00,VWS V14.01,2013-07-13 16:42:00,
2013-07-13 10:47:00,74.5,28.2,30.02,North,349,0.0,0.0,18,0.00,,---,0.00,VWS V14.01,2013-07-13 16:47:00,
2013-07-13 10:52:00,75.2,24.4,30.02,NNW,334,0.0,3.6,15,0.00,,---,0.00,VWS V14.01,2013-07-13 16:52:00,
2013-07-13 10:57:00,74.8,25.7,30.02,North,353,2.2,3.6,16,0.00,,---,0.00,VWS V14.01,2013-07-13 16:57:00,
2013-07-13 11:02:00,74.5,25.4,30.02,NE,37,2.7,3.1,16,0.00,,---,0.00,VWS V14.01,2013-07-13 17:02:00,
2013-07-13 11:07:00,75.6,24.7,30.02,NNE,15,0.0,3.6,15,0.00,,---,0.00,VWS V14.01,2013-07-13 17:07:00,
2013-07-13 11:12:00,76.1,25.1,30.02,NE,56,2.7,3.6,15,0.00,,---,0.00,VWS V14.01,2013-07-13 17:12:00,
2013-07-13 11:17:00,75.7,24.9,30.02,NW,308,0.0,0.0,15,0.00,,---,0.00,VWS V14.01,2013-07-13 17:17:00,
2013-07-13 11:22:00,76.1,25.1,30.02,WNW,286,0.0,4.9,15,0.00,,---,0.00,VWS V14.01,2013-07-13 17:22:00,
2013-07-13 11:27:00,76.1,25.1,30.02,NE,36,2.2,4.9,15,0.00,,---,0.00,VWS V14.01,2013-07-13 17:27:00,
2013-07-13 11:32:00,77.4,26.1,30.02,NE,49,0.0,2.7,15,0.00,,---,0.00,VWS V14.01,2013-07-13 17:32:00,
2013-07-13 11:37:00,77.7,26.4,30.02,NE,38,0.0,3.1,15,0.00,,---,0.00,VWS V14.01,2013-07-13 17:37:00,
2013-07-13 11:42:00,77.7,26.4,30.02,WNW,287,0.0,3.1,15,0.00,,---,0.00,VWS V14.01,2013-07-13 17:42:00,
2013-07-13 11:47:00,78.1,26.7,30.02,East,82,2.2,3.6,15,0.00,,---,0.00,VWS V14.01,2013-07-13 17:47:00,
2013-07-13 11:52:00,78.4,27.0,30.05,NE,52,2.7,3.6,15,0.00,,---,0.00,VWS V14.01,2013-07-13 17:52:00,
2013-07-13 11:57:00,78.4,27.0,30.05,NNW,335,0.0,5.4,15,0.00,,---,0.00,VWS V14.01,2013-07-13 17:57:00,
2013-07-13 12:02:00,77.5,26.3,30.05,North,0,0.0,3.1,15,0.00,,---,0.00,VWS V14.01,2013-07-13 18:02:00,
2013-07-13 12:07:00,77.4,26.1,30.05,North,353,0.0,3.1,15,0.00,,---,0.00,VWS V14.01,2013-07-13 18:07:00,
2013-07-13 12:12:00,76.6,25.6,30.05,West,277,0.0,3.1,15,0.00,,---,0.00,VWS V14.01,2013-07-13 18:12:00,
2013-07-13 12:17:00,77.5,26.3,30.05,North,7,0.0,0.0,15,0.00,,---,0.00,VWS V14.01,2013-07-13 18:17:00,
2013-07-13 12:22:00,77.7,26.4,30.02,NNW,345,0.0,0.0,15,0.00,,---,0.00,VWS V14.01,2013-07-13 18:22:00,
2013-07-13 12:27:00,78.1,26.7,30.02,NNW,341,0.0,2.7,15,0.00,,---,0.00,VWS V14.01,2013-07-13 18:27:00,
2013-07-13 12:32:00,78.1,26.7,30.02,NNE,18,0.0,3.1,15,0.00,,---,0.00,VWS V14.01,2013-07-13 18:32:00,
2013-07-13 12:37:00,78.8,27.3,30.02,NE,55,2.7,4.0,15,0.00,,---,0.00,VWS V14.01,2013-07-13 18:37:00,
2013-07-13 12:42:00,78.4,27.0,30.02,ENE,64,3.6,4.0,15,0.00,,---,0.00,VWS V14.01,2013-07-13 18:42:00,
2013-07-13 12:47:00,79.0,27.4,30.02,WNW,297,0.0,2.7,15,0.00,,---,0.00,VWS V14.01,2013-07-13 18:47:00,
2013-07-13 12:52:00,78.4,27.0,30.05,West,268,0.0,3.1,15,0.00,,---,0.00,VWS V14.01,2013-07-13 18:52:00,
2013-07-13 12:57:00,78.1,26.7,30.05,North,357,3.1,3.1,15,0.00,,---,0.00,VWS V14.01,2013-07-13 18:57:00,
2013-07-13 13:02:00,78.1,26.7,30.05,NNW,344,2.2,3.6,15,0.00,,---,0.00,VWS V14.01,2013-07-13 19:02:00,
2013-07-13 13:07:00,79.0,27.4,30.02,ENE,70,3.6,3.6,15,0.00,,---,0.00,VWS V14.01,2013-07-13 19:07:00,
2013-07-13 13:12:00,79.7,28.0,30.02,East,95,0.0,3.6,15,0.00,,---,0.00,VWS V14.01,2013-07-13 19:12:00,
2013-07-13 13:17:00,79.3,27.7,30.02,NNE,12,0.0,4.9,15,0.00,,---,0.00,VWS V14.01,2013-07-13 19:17:00,
2013-07-13 13:22:00,79.3,27.7,30.02,NNW,342,0.0,4.9,15,0.00,,---,0.00,VWS V14.01,2013-07-13 19:22:00,
2013-07-13 13:27:00,79.5,27.9,30.02,North,3,0.0,4.9,15,0.00,,---,0.00,VWS V14.01,2013-07-13 19:27:00,
2013-07-13 13:32:00,79.7,28.0,30.02,NNE,22,0.0,2.7,15,0.00,,---,0.00,VWS V14.01,2013-07-13 19:32:00,
2013-07-13 13:37:00,80.1,28.3,30.02,NNE,28,0.0,2.7,15,0.00,,---,0.00,VWS V14.01,2013-07-13 19:37:00,
2013-07-13 13:42:00,79.7,28.0,30.02,WNW,290,0.0,3.1,15,0.00,,---,0.00,VWS V14.01,2013-07-13 19:42:00,
2013-07-13 13:47:00,80.2,28.4,30.02,NW,311,0.0,0.0,15,0.00,,---,0.00,VWS V14.01,2013-07-13 19:47:00,
2013-07-13 13:52:00,80.4,28.6,30.02,NNW,340,0.0,2.7,15,0.00,,---,0.00,VWS V14.01,2013-07-13 19:52:00,
2013-07-13 13:57:00,79.9,28.1,30.02,NNW,335,3.6,3.6,15,0.00,,---,0.00,VWS V14.01,2013-07-13 19:57:00,
2013-07-13 14:02:00,80.4,28.6,30.02,SSE,150,2.7,2.7,15,0.00,,---,0.00,VWS V14.01,2013-07-13 20:02:00,
2013-07-13 14:07:00,81.9,28.0,30.02,ENE,77,4.0,4.9,14,0.00,,---,0.00,VWS V14.01,2013-07-13 20:07:00,
2013-07-13 14:12:00,82.4,28.5,30.02,East,93,3.1,4.9,14,0.00,,---,0.00,VWS V14.01,2013-07-13 20:12:00,
2013-07-13 14:17:00,82.0,28.2,30.02,NNW,335,0.0,3.6,14,0.00,,---,0.00,VWS V14.01,2013-07-13 20:17:00,
2013-07-13 14:22:00,82.0,28.2,30.02,NE,55,2.2,3.6,14,0.00,,---,0.00,VWS V14.01,2013-07-13 20:22:00,
2013-07-13 14:27:00,83.1,29.0,30.02,NE,52,3.1,5.4,14,0.00,,---,0.00,VWS V14.01,2013-07-13 20:27:00,
2013-07-13 14:33:00,82.4,28.5,30.02,North,350,0.0,2.2,14,0.00,,---,0.00,VWS V14.01,2013-07-13 20:33:00,
2013-07-13 14:38:00,81.7,27.9,30.02,NNW,345,0.0,3.1,14,0.00,,---,0.00,VWS V14.01,2013-07-13 20:38:00,
2013-07-13 14:43:00,81.7,27.9,30.02,NNE,20,0.0,3.1,14,0.00,,---,0.00,VWS V14.01,2013-07-13 20:43:00,
2013-07-13 14:48:00,81.7,27.9,30.02,NW,306,2.7,4.9,14,0.00,,---,0.00,VWS V14.01,2013-07-13 20:48:00,
2013-07-13 14:53:00,82.9,28.9,30.02,ESE,105,2.2,6.7,14,0.00,,---,0.00,VWS V14.01,2013-07-13 20:53:00,
2013-07-13 14:58:00,82.9,28.9,30.02,North,2,2.2,6.7,14,0.00,,---,0.00,VWS V14.01,2013-07-13 20:58:00,
2013-07-13 15:03:00,82.0,28.2,30.02,North,357,2.2,3.6,14,0.00,,---,0.00,VWS V14.01,2013-07-13 21:03:00,
2013-07-13 15:08:00,82.0,28.2,30.02,NNE,16,2.2,4.0,14,0.00,,---,0.00,VWS V14.01,2013-07-13 21:08:00,
2013-07-13 15:13:00,82.2,28.3,30.02,North,357,2.2,4.0,14,0.00,,---,0.00,VWS V14.01,2013-07-13 21:13:00,
2013-07-13 15:18:00,82.8,28.8,30.02,NNE,18,0.0,0.0,14,0.00,,---,0.00,VWS V14.01,2013-07-13 21:18:00,
2013-07-13 15:23:00,82.6,28.6,30.02,NNE,23,2.2,3.1,14,0.00,,---,0.00,VWS V14.01,2013-07-13 21:23:00,
2013-07-13 15:28:00,83.1,29.0,30.02,North,0,0.0,3.1,14,0.00,,---,0.00,VWS V14.01,2013-07-13 21:28:00,
2013-07-13 15:33:00,83.3,29.2,30.02,NNW,329,0.0,0.0,14,0.00,,---,0.00,VWS V14.01,2013-07-13 21:33:00,
2013-07-13 15:38:00,83.7,29.5,30.02,NNE,13,2.2,3.6,14,0.00,,---,0.00,VWS V14.01,2013-07-13 21:38:00,
2013-07-13 15:43:00,84.0,29.8,30.02,East,79,4.0,4.0,14,0.00,,---,0.00,VWS V14.01,2013-07-13 21:43:00,
2013-07-13 15:48:00,83.5,29.3,30.02,West,264,0.0,0.0,14,0.00,,---,0.00,VWS V14.01,2013-07-13 21:48:00,
2013-07-13 15:53:00,82.4,28.5,30.02,North,4,0.0,3.6,14,0.00,,---,0.00,VWS V14.01,2013-07-13 21:53:00,
2013-07-13 15:58:00,82.4,28.5,30.02,West,270,0.0,3.6,14,0.00,,---,0.00,VWS V14.01,2013-07-13 21:58:00,
2013-07-13 16:03:00,83.1,29.0,30.02,NW,306,0.0,2.2,14,0.00,,---,0.00,VWS V14.01,2013-07-13 22:03:00,
2013-07-13 16:08:00,82.2,28.3,30.02,NE,35,0.0,4.0,14,0.00,,---,0.00,VWS V14.01,2013-07-13 22:08:00,
2013-07-13 16:13:00,82.4,28.5,30.02,North,10,0.0,4.0,14,0.00,,---,0.00,VWS V14.01,2013-07-13 22:13:00,
2013-07-13 16:18:00,81.9,28.0,30.02,NW,315,0.0,4.0,14,0.00,,---,0.00,VWS V14.01,2013-07-13 22:18:00,
2013-07-13 16:23:00,81.9,28.0,29.99,West,278,0.0,4.0,14,0.00,,---,0.00,VWS V14.01,2013-07-13 22:23:00,
2013-07-13 16:28:00,81.9,28.0,29.99,North,357,0.0,4.0,14,0.00,,---,0.00,VWS V14.01,2013-07-13 22:28:00,
2013-07-13 16:33:00,81.7,27.9,29.99,WSW,252,2.7,2.7,14,0.00,,---,0.00,VWS V14.01,2013-07-13 22:33:00,
2013-07-13 16:38:00,81.9,28.0,29.99,NE,39,0.0,2.7,14,0.00,,---,0.00,VWS V14.01,2013-07-13 22:38:00,
2013-07-13 16:43:00,82.2,28.3,29.99,WSW,246,0.0,4.0,14,0.00,,---,0.00,VWS V14.01,2013-07-13 22:43:00,
2013-07-13 16:48:00,81.9,28.0,29.99,North,353,0.0,4.0,14,0.00,,---,0.00,VWS V14.01,2013-07-13 22:48:00,
2013-07-13 16:53:00,81.7,27.9,29.99,North,7,0.0,4.0,14,0.00,,---,0.00,VWS V14.01,2013-07-13 22:53:00,
2013-07-13 16:58:00,82.2,28.3,29.99,NNW,339,0.0,4.0,14,0.00,,---,0.00,VWS V14.01,2013-07-13 22:58:00,
2013-07-13 17:03:00,82.4,28.5,29.99,NNE,17,2.2,3.6,14,0.00,,---,0.00,VWS V14.01,2013-07-13 23:03:00,
2013-07-13 17:08:00,82.0,28.2,29.99,NW,307,0.0,3.6,14,0.00,,---,0.00,VWS V14.01,2013-07-13 23:08:00,
2013-07-13 17:13:00,82.2,28.3,29.99,NNE,14,0.0,3.6,14,0.00,,---,0.00,VWS V14.01,2013-07-13 23:13:00,
2013-07-13 17:18:00,82.8,28.8,29.99,NNW,346,0.0,3.1,14,0.00,,---,0.00,VWS V14.01,2013-07-13 23:18:00,
2013-07-13 17:23:00,82.2,28.3,29.99,WNW,299,0.0,3.6,14,0.00,,---,0.00,VWS V14.01,2013-07-13 23:23:00,
2013-07-13 17:28:00,82.2,28.3,29.99,NE,36,2.7,3.6,14,0.00,,---,0.00,VWS V14.01,2013-07-13 23:28:00,
2013-07-13 17:33:00,82.8,28.8,29.99,NE,46,2.2,3.6,14,0.00,,---,0.00,VWS V14.01,2013-07-13 23:33:00,
2013-07-13 17:38:00,83.1,29.0,29.99,North,353,0.0,3.6,14,0.00,,---,0.00,VWS V14.01,2013-07-13 23:38:00,
2013-07-13 17:43:00,82.4,28.5,29.99,NW,322,0.0,4.0,14,0.00,,---,0.00,VWS V14.01,2013-07-13 23:43:00,
2013-07-13 17:48:00,82.0,28.2,29.99,NE,48,2.7,2.7,14,0.00,,---,0.00,VWS V14.01,2013-07-13 23:48:00,
2013-07-13 17:53:00,82.2,28.3,29.99,NNE,24,0.0,4.0,14,0.00,,---,0.00,VWS V14.01,2013-07-13 23:53:00,
2013-07-13 17:58:00,81.9,28.0,29.99,NNE,22,4.0,4.0,14,0.00,,---,0.00,VWS V14.01,2013-07-13 23:58:00,
2013-07-13 18:03:00,82.0,28.2,29.99,North,9,3.1,3.1,14,0.00,,---,0.00,VWS V14.01,2013-07-14 00:03:00,
2013-07-13 18:08:00,81.9,28.0,29.99,NNE,23,0.0,5.8,14,0.00,,---,0.00,VWS V14.01,2013-07-14 00:08:00,
2013-07-13 18:13:00,81.5,27.8,29.99,North,357,2.7,5.8,14,0.00,,---,0.00,VWS V14.01,2013-07-14 00:13:00,
2013-07-13 18:18:00,81.5,27.8,29.99,North,8,0.0,3.1,14,0.00,,---,0.00,VWS V14.01,2013-07-14 00:18:00,
2013-07-13 18:23:00,81.1,27.5,29.99,WNW,287,0.0,3.1,14,0.00,,---,0.00,VWS V14.01,2013-07-14 00:23:00,
2013-07-13 18:28:00,81.5,27.8,29.99,North,350,2.7,3.1,14,0.00,,---,0.00,VWS V14.01,2013-07-14 00:28:00,
2013-07-13 18:33:00,81.3,27.6,29.99,NNW,332,3.6,4.0,14,0.00,,---,0.00,VWS V14.01,2013-07-14 00:33:00,
2013-07-13 18:38:00,80.8,27.2,29.99,North,10,2.2,4.0,14,0.00,,---,0.00,VWS V14.01,2013-07-14 00:38:00,
2013-07-13 18:43:00,81.0,27.3,29.99,North,5,2.7,4.0,14,0.00,,---,0.00,VWS V14.01,2013-07-14 00:43:00,
2013-07-13 18:48:00,81.0,27.3,29.99,North,357,0.0,2.7,14,0.00,,---,0.00,VWS V14.01,2013-07-14 00:48:00,
2013-07-13 18:53:00,80.6,27.0,29.99,NNW,334,2.2,3.6,14,0.00,,---,0.00,VWS V14.01,2013-07-14 00:53:00,
2013-07-13 18:58:00,79.9,28.1,29.99,West,279,0.0,3.6,15,0.00,,---,0.00,VWS V14.01,2013-07-14 00:58:00,
2013-07-13 19:03:00,79.9,28.1,29.99,West,280,0.0,3.1,15,0.00,,---,0.00,VWS V14.01,2013-07-14 01:03:00,
2013-07-13 19:08:00,79.5,27.9,29.99,NW,312,0.0,3.1,15,0.00,,---,0.00,VWS V14.01,2013-07-14 01:08:00,
2013-07-13 19:13:00,79.0,27.4,29.99,NW,309,0.0,3.6,15,0.00,,---,0.00,VWS V14.01,2013-07-14 01:13:00,
2013-07-13 19:18:00,78.6,27.1,29.99,NW,312,0.0,2.7,15,0.00,,---,0.00,VWS V14.01,2013-07-14 01:18:00,
2013-07-13 19:23:00,78.1,26.7,29.99,North,0,0.0,2.7,15,0.00,,---,0.00,VWS V14.01,2013-07-14 01:23:00,
2013-07-13 19:28:00,77.9,26.6,29.99,NNW,338,0.0,3.1,15,0.00,,---,0.00,VWS V14.01,2013-07-14 01:28:00,
2013-07-13 19:33:00,77.5,26.3,29.99,WNW,299,0.0,0.0,15,0.00,,---,0.00,VWS V14.01,2013-07-14 01:33:00,
2013-07-13 19:38:00,77.2,26.0,29.99,NNW,328,0.0,3.1,15,0.00,,---,0.00,VWS V14.01,2013-07-14 01:38:00,
2013-07-13 19:43:00,76.6,25.6,29.99,NE,41,0.0,3.1,15,0.00,,---,0.00,VWS V14.01,2013-07-14 01:43:00,
2013-07-13 19:48:00,76.1,25.1,29.99,North,353,0.0,0.0,15,0.00,,---,0.00,VWS V14.01,2013-07-14 01:48:00,
2013-07-13 19:53:00,75.7,24.9,29.99,WNW,290,0.0,0.0,15,0.00,,---,0.00,VWS V14.01,2013-07-14 01:53:00,
2013-07-13 19:58:00,75.4,21.2,29.99,WNW,288,0.0,0.0,13,0.00,,---,0.00,VWS V14.01,2013-07-14 01:58:00,
2013-07-13 20:03:00,75.0,25.8,29.99,NNW,339,0.0,0.0,16,0.00,,---,0.00,VWS V14.01,2013-07-14 02:03:00,
2013-07-13 20:08:00,74.8,25.7,29.99,WNW,300,0.0,2.2,16,0.00,,---,0.00,VWS V14.01,2013-07-14 02:08:00,
2013-07-13 20:13:00,74.5,25.4,29.99,WNW,303,0.0,2.2,16,0.00,,---,0.00,VWS V14.01,2013-07-14 02:13:00,
2013-07-13 20:18:00,74.1,25.1,29.99,WNW,303,0.0,0.0,16,0.00,,---,0.00,VWS V14.01,2013-07-14 02:18:00,
2013-07-13 20:23:00,73.8,24.8,29.99,NW,305,0.0,0.0,16,0.00,,---,0.00,VWS V14.01,2013-07-14 02:23:00,
2013-07-13 20:28:00,73.4,19.6,29.99,WNW,297,0.0,0.0,13,0.00,,---,0.00,VWS V14.01,2013-07-14 02:28:00,
2013-07-13 20:33:00,72.9,20.9,29.99,NW,309,2.7,2.7,14,0.00,,---,0.00,VWS V14.01,2013-07-14 02:33:00,
2013-07-13 20:38:00,72.3,20.5,30.02,West,278,0.0,2.7,14,0.00,,---,0.00,VWS V14.01,2013-07-14 02:38:00,
2013-07-13 20:43:00,71.8,20.1,30.02,West,280,0.0,3.1,14,0.00,,---,0.00,VWS V14.01,2013-07-14 02:43:00,
2013-07-13 20:48:00,71.4,19.8,30.02,West,279,0.0,2.2,14,0.00,,---,0.00,VWS V14.01,2013-07-14 02:48:00,
2013-07-13 20:53:00,71.1,19.5,30.02,West,277,0.0,3.1,14,0.00,,---,0.00,VWS V14.01,2013-07-14 02:53:00,
2013-07-13 20:58:00,70.7,19.2,30.02,WNW,288,0.0,3.1,14,0.00,,---,0.00,VWS V14.01,2013-07-14 02:58:00,
2013-07-13 21:03:00,70.3,18.9,30.02,West,270,3.6,3.6,14,0.00,,---,0.00,VWS V14.01,2013-07-14 03:03:00,
2013-07-13 21:08:00,70.0,18.6,30.02,WSW,250,0.0,3.6,14,0.00,,---,0.00,VWS V14.01,2013-07-14 03:08:00,
2013-07-13 21:13:00,69.6,20.0,30.02,West,279,0.0,3.6,15,0.00,,---,0.00,VWS V14.01,2013-07-14 03:13:00,
2013-07-13 21:18:00,69.4,19.8,30.02,NNE,18,0.0,2.7,15,0.00,,---,0.00,VWS V14.01,2013-07-14 03:18:00,
2013-07-13 21:23:00,69.3,19.7,30.02,West,275,2.7,3.6,15,0.00,,---,0.00,VWS V14.01,2013-07-14 03:23:00,
2013-07-13 21:28:00,69.3,19.7,30.02,West,278,0.0,4.0,15,0.00,,---,0.00,VWS V14.01,2013-07-14 03:28:00,
2013-07-13 21:33:00,69.4,19.8,30.02,WNW,283,0.0,3.1,15,0.00,,---,0.00,VWS V14.01,2013-07-14 03:33:00,
2013-07-13 21:38:00,69.1,19.5,30.02,WNW,285,0.0,3.1,15,0.00,,---,0.00,VWS V14.01,2013-07-14 03:38:00,
2013-07-13 21:43:00,68.9,19.4,30.02,WNW,297,2.2,3.1,15,0.00,,---,0.00,VWS V14.01,2013-07-14 03:43:00,
2013-07-13 21:48:00,68.7,19.2,30.02,West,279,0.0,0.0,15,0.00,,---,0.00,VWS V14.01,2013-07-14 03:48:00,
2013-07-13 21:53:00,68.4,19.0,30.02,West,259,0.0,3.1,15,0.00,,---,0.00,VWS V14.01,2013-07-14 03:53:00,
2013-07-13 21:58:00,68.2,18.8,30.02,WNW,292,0.0,3.1,15,0.00,,---,0.00,VWS V14.01,2013-07-14 03:58:00,
2013-07-13 22:01:00,68.2,18.8,30.02,WNW,292,0.0,0.0,15,0.00,,---,0.00,VWS V14.01,2013-07-14 04:01:00,
2013-07-13 22:06:00,68.4,19.0,30.05,WNW,289,0.0,2.7,15,0.00,,---,0.00,VWS V14.01,2013-07-14 04:06:00,
2013-07-13 22:11:00,68.4,19.0,30.05,West,270,0.0,2.7,15,0.00,,---,0.00,VWS V14.01,2013-07-14 04:11:00,
2013-07-13 22:16:00,68.0,18.7,30.05,West,270,0.0,0.0,15,0.00,,---,0.00,VWS V14.01,2013-07-14 04:16:00,
2013-07-13 22:21:00,67.8,18.5,30.05,West,270,0.0,0.0,15,0.00,,---,0.00,VWS V14.01,2013-07-14 04:21:00,
2013-07-13 22:26:00,67.3,18.1,30.05,West,270,0.0,0.0,15,0.00,,---,0.00,VWS V14.01,2013-07-14 04:26:00,
2013-07-13 22:31:00,66.7,17.6,30.05,West,271,0.0,2.7,15,0.00,,---,0.00,VWS V14.01,2013-07-14 04:31:00,
2013-07-13 22:36:00,66.6,17.5,30.05,West,271,0.0,2.7,15,0.00,,---,0.00,VWS V14.01,2013-07-14 04:36:00,
2013-07-13 22:41:00,65.7,16.8,30.05,ESE,116,0.0,2.7,15,0.00,,---,0.00,VWS V14.01,2013-07-14 04:41:00,
2013-07-13 22:46:00,63.9,16.8,30.05,ESE,116,0.0,0.0,16,0.00,,---,0.00,VWS V14.01,2013-07-14 04:46:00,
2013-07-13 22:51:00,63.0,16.1,30.05,ESE,116,0.0,0.0,16,0.00,,---,0.00,VWS V14.01,2013-07-14 04:51:00,
2013-07-13 22:56:00,61.9,15.2,30.05,ESE,116,0.0,0.0,16,0.00,,---,0.00,VWS V14.01,2013-07-14 04:56:00,
2013-07-13 23:01:00,61.0,14.5,30.05,ESE,116,0.0,0.0,16,0.00,,---,0.00,VWS V14.01,2013-07-14 05:01:00,
2013-07-13 23:06:00,60.6,18.2,30.05,SW,229,0.0,0.0,19,0.00,,---,0.00,VWS V14.01,2013-07-14 05:06:00,
2013-07-13 23:11:00,60.4,18.0,30.05,SW,229,0.0,0.0,19,0.00,,---,0.00,VWS V14.01,2013-07-14 05:11:00,
2013-07-13 23:16:00,59.9,17.6,30.05,East,101,0.0,0.0,19,0.00,,---,0.00,VWS V14.01,2013-07-14 05:16:00,
2013-07-13 23:21:00,58.6,19.9,30.05,East,97,0.0,3.6,22,0.00,,---,0.00,VWS V14.01,2013-07-14 05:21:00,
2013-07-13 23:26:00,57.9,23.3,30.05,East,97,0.0,3.6,26,0.00,,---,0.00,VWS V14.01,2013-07-14 05:26:00,
2013-07-13 23:31:00,57.6,23.9,30.05,South,173,0.0,0.0,27,0.00,,---,0.00,VWS V14.01,2013-07-14 05:31:00,
2013-07-13 23:36:00,57.2,23.5,30.05,South,173,0.0,0.0,27,0.00,,---,0.00,VWS V14.01,2013-07-14 05:36:00,
2013-07-13 23:41:00,57.2,22.6,30.05,South,173,0.0,0.0,26,0.00,,---,0.00,VWS V14.01,2013-07-14 05:41:00,
2013-07-13 23:46:00,57.2,22.6,30.05,South,173,0.0,0.0,26,0.00,,---,0.00,VWS V14.01,2013-07-14 05:46:00,
2013-07-13 23:51:00,57.0,23.4,30.05,South,173,0.0,0.0,27,0.00,,---,0.00,VWS V14.01,2013-07-14 05:51:00,
2013-07-13 23:56:00,56.8,23.2,30.05,WSW,254,0.0,2.7,27,0.00,,---,0.00,VWS V14.01,2013-07-14 05:56:00,